Flag for Canada Weather past 2 weeks in Cranbrook, British Columbia, Canada

Now
63 °F

Passing clouds.


Feels Like: 63 °F
Forecast: 47 / 71 °F
Wind: 3 mph from North

Location: Cranbrook

Current Time: Sep 20, 2014 at 12:54:37 PM

Latest Report: Sep 20, 2014 at 12:00 PM


Visibility: 25 mi

Pressure: 30.25 "Hg

Humidity: 56%

Dew point: 46 °F

Location of CranbrookLocation

Historic Weather in Cranbrook — Graph

°F

Cranbrook temperature yesterday

Maximum temperature yesterday: 72 °F (at 3:00 PM)
Minimum temperature yesterday: 50 °F (at 1:00 AM)
Average temperature yesterday: 61 °F

Past Weeks' High & Low Weather Summary

 TemperatureHumidityPressure
High81 °F (Sep 7, 6:00 PM)93% (Sep 5, 7:00 AM)30.64 "Hg (Sep 5, 7:00 AM)
Low27 °F (Sep 11, 4:00 AM)27% (Sep 14, 5:00 PM)29.66 "Hg (Sep 18, 6:00 AM)
Average53 °F62%30.07 "Hg
* Reported Sep 5 7:00 AM — Sep 20 7:00 AM, Cranbrook, Weather by CustomWeather, © 2014

Note: Actual official high and low records may vary slightly from our data, if they occured in-between our weather recording intervals... More about our weather records

Advertising

Cranbrook weather history for previous 24 hours

 ConditionsComfort  
Time TempWeatherWind HumidityBarometerVisibility
7:00 AM
Sep 20
45 °FPassing clouds.2 mph87%30.22 "Hg25 mi
6:00 AM52 °FPassing clouds.2 mph72%30.18 "Hg25 mi
5:00 AM46 °FPassing clouds.3 mph87%30.16 "Hg25 mi
4:00 AM48 °FClear.2 mph87%30.13 "Hg25 mi
3:00 AM54 °FClear.5 mph77%30.11 "Hg25 mi
2:00 AM52 °FClear.2 mph77%30.10 "Hg25 mi
1:00 AM54 °FClear.3 mph72%30.08 "Hg25 mi
12:00 AM57 °FPassing clouds.3 mph67%30.05 "Hg25 mi
11:00 PM
Sep 19
57 °FPassing clouds.5 mph67%30.03 "Hg25 mi
10:00 PM59 °FPassing clouds.3 mph63%30.02 "Hg25 mi
9:00 PM59 °FPassing clouds.5 mph63%30.01 "Hg25 mi
8:00 PM63 °FBroken clouds.9 mph56%30.00 "Hg25 mi
7:00 PM66 °FBroken clouds.8 mph52%29.98 "Hg25 mi
6:00 PM68 °FBroken clouds.13 mph49%29.96 "Hg25 mi
5:00 PM68 °FPartly sunny.12 mph49%29.95 "Hg25 mi
4:00 PM72 °FPartly sunny.8 mph36%29.93 "Hg25 mi
3:00 PM72 °FPartly sunny.6 mph38%29.93 "Hg25 mi
2:00 PM68 °FPartly sunny.7 mph40%29.94 "Hg25 mi
1:00 PM68 °FPartly sunny.7 mph46%29.95 "Hg25 mi
12:00 PM70 °FPartly sunny.9 mph46%29.93 "Hg25 mi
Weather by CustomWeather, © 2014

See weather overviewHow to use our weather pages